www.pogodaiklimat.ru

Погода и климат >> Архив погоды >> Китай >> Ejin Qi


ПОГОДА в Ejin Qi

  • Прогноз погоды в Ejin Qi
  • Монитор погоды в Ejin Qi
  • Климат города

АРХИВ ПОГОДЫ в Ejin Qi

Время (UTC), дата Ветер
(напр.,м/с)
 
Видим.   Явления Облачность Т
(С)
Тd
(С)
f
(%)
Тe
(С)
Тes
(С)
Комфортность P
(гПа)
Po
(гПа)
Тmin
(С)
Tmax
(С)
R
(мм)
R24
(мм)
S
(см)
06 19.06 СВ 3 30 км 3/3 1500 м
[]
+31.6 +3.6 17 +29 +41 жарко 1003.2 902.3 +20.6
09 19.06 ЮВ 1 30 км 9/9
[]
+32.9 -1.4 11 +29 +30 жарко 1001.3 1001.0
12 19.06 СВ 1 14 км 9/9
[]
+31.5 +0.8 14 +29 +29 жарко 1000.5 899.7
15 19.06 штиль 0 20 км ?/? +25.1 +5.8 29 +25 +25 комфорт 1000.9 865.6
18 19.06 Ю 2 30 км ?/? +24.8 -1.9 17 +23 +23 комфорт 999.3 898.8 +33.6
21 19.06 СЗ 1 30 км ?/? +23.3 -2.3 18 +22 +22 комфорт 998.9 999.0
00 20.06 СВ 1 21 км 9/9
[]
+22.9 +2.9 27 +23 +23 комфорт 999.2 898.4
03 20.06 З 4 30 км 9/9 1500 м
[]
+28.6 +4.8 22 +27 +28 жарко 999.6 864.8
06 20.06 З 4 30 км 9/9 1500 м
[]
+30.2 +6.1 22 +29 +30 жарко 998.2 897.6 +21.0
09 20.06 ЮВ 3 30 км 6/6 1500 м
[]
+31.8 +8.0 23 +29 +32 жарко 996.3 996.0
12 20.06 С 4 4000 м пыльный позёмок 8/8 1500 м
[]
+25.1 +9.0 36 +26 +26 жарко 999.9 898.0
15 20.06 В 2 30 км ?/? +22.5 +7.9 39 +24 +24 комфорт 999.1 999.0
18 20.06 С 1 30 км ?/? +21.5 +9.4 46 +23 +23 комфорт 1000.0 898.7 +32.4
21 20.06 В 2 30 км ?/? +20.6 +6.9 41 +22 +22 комфорт 999.5 1000.0
00 21.06 В 4 7000 м 4/4
[]
+21.6 +6.7 38 +22 +24 комфорт 1002.4 900.1
03 21.06 В 5 11 км ясно +25.6 +6.8 30 +25 +34 комфорт 1003.3 866.4
06 21.06 В 3 30 км 4/4 1500 м
[]
+28.6 +6.1 24 +27 +37 жарко 1001.5 899.8 +19.0
09 21.06 СВ 3 30 км 9/9 1500 м
[]
+28.7 +5.5 23 +27 +28 жарко 1000.5 1001.0
12 21.06 В 2 30 км 3/3 1500 м
[]
+27.8 +5.4 24 +27 +27 жарко 1000.5 1035.2
15 21.06 СВ 2 30 км ?/? +23.9 +3.2 26 +23 +23 комфорт 1001.7 1002.0
18 21.06 СВ 2 30 км ?/? +20.0 +6.0 40 +21 +21 комфорт 1003.4 901.3 +30.2
21 21.06 В 2 30 км ?/? +17.0 +6.2 49 +17 +17 1005.2 1005.0
00 22.06 В 5 18 км 5/5
[]
+18.0 +8.0 52 +18 +19 1006.8 903.9
03 22.06 СВ 5 30 км ясно +22.8 +4.3 30 +23 +31 комфорт 1007.3 1007.0
06 22.06 В 7 н/о пыльный позёмок 3/3
[]
+25.2 +3.2 24 +24 +28 комфорт 1007.2 904.1 +15.9
09 22.06 В 7 20 км 3/3 1500 м
[]
+25.2 +2.6 23 +24 +26 комфорт 1007.5 1008.0
12 22.06 В 4 19 км ясно +23.5 +2.9 26 +23 +23 комфорт 1008.6 904.8
15 22.06 В 1 28 км ?/? +19.9 +3.2 33 +21 +21 комфорт 1010.5 870.9
18 22.06 З 1 30 км ?/? +18.5 +2.4 34 +20 +20 1010.0 906.4 +26.6
21 22.06 СЗ 1 30 км ?/? +15.9 +3.3 43 +17 +17 1010.8 1011.0
00 23.06 З 2 21 км ясно +20.4 +4.0 34 +22 +25 комфорт 1010.5 1045.5
03 23.06 С 1 30 км ясно +26.9 +1.4 19 +25 +43 комфорт 1009.8 1010.0
06 23.06 С 3 30 км 1/1 1500 м
[]
+29.8 -2.6 12 +27 +41 жарко 1007.8 905.2 +14.9
09 23.06 В 2 30 км ясно +31.3 -5.3 9 +27 +37 жарко 1005.9 869.5
12 23.06 В 2 30 км 1/1
[]
+30.5 -3.3 11 +27 +27 жарко 1005.1 903.2
15 23.06 Ю 1 30 км ?/? +25.6 -3.9 14 +23 +23 комфорт 1006.1 1006.0
18 23.06 В 1 30 км ?/? +20.4 -0.3 25 +22 +22 комфорт 1007.3 905.0 +31.7
21 23.06 В 1 30 км ?/? +19.0 +0.1 28 +20 +20 1007.0 1007.0
00 24.06 В 3 30 км 3/3
[]
+21.3 +2.1 28 +21 +23 комфорт 1007.5 905.5
03 24.06 ЮВ 3 30 км ясно +29.9 +0.5 15 +27 +40 жарко 1006.8 871.0
06 24.06 З 1 30 км 9/9
[]
+32.5 -4.4 9 +29 +31 жарко 1005.6 903.9 +18.1
09 24.06 Ю 2 30 км 9/9
[]
+33.8 -5.0 8 +30 +31 жарко 1003.7 1004.0
12 24.06 В 1 30 км 9/9
[]
+32.4 -1.8 11 +29 +29 жарко 1003.0 1037.1
15 24.06 Ю 1 30 км ?/? +27.7 -2.2 14 +25 +25 комфорт 1002.9 1003.0
18 24.06 Ю 1 30 км ?/? +24.7 -3.6 15 +23 +23 комфорт 1002.9 902.2 +33.9
21 24.06 ЮВ 2 30 км ?/? +20.5 -1.9 22 +21 +21 комфорт 1003.7 869.1
00 25.06 ЮВ 1 30 км 9/9
[]
+24.4 +1.9 23 +23 +24 комфорт 1004.2 903.3
03 25.06 В 2 30 км ясно +31.8 +1.0 14 +29 +44 жарко 1003.6 1004.0
06 25.06 В 4 30 км 3/3
[]
+34.6 -2.9 9 +31 +40 жарко 1002.2 901.9 +20.3
09 25.06 В 2 30 км 9/9
[]
+34.9 -2.6 9 +31 +32 жарко 1000.8 1001.0
12 25.06 штиль 0 30 км 9/9
[]
+32.9 +0.9 13 +30 +30 жарко 1000.1 1034.3
15 25.06 В 2 30 км ?/? +29.1 -2.1 13 +26 +26 жарко 1000.5 1001.0
18 25.06 Ю 1 30 км ?/? +26.5 -2.2 15 +24 +24 комфорт 1000.3 900.5 +35.6
21 25.06 Ю 2 30 км ?/? +23.4 -3.0 17 +22 +22 комфорт 1001.3 1001.0
00 26.06 В 1 30 км 8/8
[]
+23.7 +2.0 24 +23 +24 комфорт 1002.8 902.0

 

Местоположение метеостанции Ejin Qi (Китай): широта 41.95 долгота 101.06 высота над уровнем моря 941 м.

В архиве по умолчанию представлена погода в Ejin Qi за последнюю неделю. Архивные данные за месяц целиком и за предыдущие месяцы, начиная с января 2011 года, Вы можете получить, выбрав интересующий диапазон дат из раскрывающегося списка и нажав кнопку "Ввод!".

Внимание! Время в таблицах - всемирное. Для получения местного времени необходимо прибавить поправку, которая в Ejin Qi равна 8 ч.

Смотрите также архив погоды в соседних городах и на ближайших метеорологических станциях:

Погода в Guai Zi Hu (Китай) (126 км)
Погода в Shine Usa (Монголия) (127 км)
Погода в Bogd (Монголия) (313 км)
Погода в Bayan Mod (Китай) (317 км)
Погода в Jiuquan (Китай) (325 км)
Погода в Dalanzadgad (Монголия) (328 км)
Погода в Mazong Shan (Китай) (334 км)
Погода в Zhangye (Китай) (340 км)
Погода в Amarbuyantayn (Монголия) (353 км)
Погода в Yumen Zhen (Китай) (386 км)

Пояснения к столбцам:

Ветер - указаны скорость ветра в м/с - средняя за 10 мин, порывы в срок и между сроками (в фигурных скобках) и направление, откуда дует ветер: С - северный, СВ - северо-восточный, В - восточный, ЮВ - юго-восточный, Ю - южный, ЮЗ - юго-западный, З - западный, СЗ - северо-западный.
Видимость - горизонтальная дальность видимости в метрах или километрах. При видимости от 1 до 10 км при отсутствии осадков обычно наблюдается дымка, при ухудшении видимости до 1 км и менее - туман. В сухую погоду видимость может ухудшаться дымом, пылью или мглою.
Явления - указаны атмосферные явления, наблюдавшиеся в срок или в последний час перед сроком; фигурными скобками обозначены явления, наблюдавшиеся между сроками (за 1-3 часа до срока); квадратными скобками обозначены град или гололедные отложения с указанием их диаметра в мм.
Облачность - указаны через наклонную черту общая и нижняя облачность в баллах и высота нижней границы облаков в метрах; квадратными скобками обозначены формы облаков: Ci - перистые, Cs - перисто-слоистые, Cc - перисто-кучевые, Ac - высококучевые, As - высокослоистые, Sc - слоисто-кучевые, Ns - слоисто-дождевые, Cu - кучевые, Cb - кучево-дождевые. Подробнее классификацию облаков см. в Атласе облаков (PDF).
T - Температура воздуха - температура, измеренная на высоте 2 м над землей.
Td - Температура точки росы - температура, при понижении до которой содержащийся в воздухе водяной пар достигнет насыщения.
f - Относительная влажность воздуха - влажноcть воздуха, измеренная на высоте 2 м над землей.
Te - Эффективная температура - температура, которую ощущает одетый по сезону человек в тени. Характеристика душности погоды. При расчете учитывается влияние влажности воздуха и скорости ветра на теплоощущения человека.
Tes - Эффективная температура на солнце - температура, которую ощущает человек, с поправкой на солнечный нагрев. Характеристика знойности погоды. Зависит от высоты солнца над горизонтом, облачности и скорости ветра. Ночью, в пасмурную погоду, а также при ветре 12 м/с и более поправка равна нулю.
P - Атмосферное давление - приведенное к уровню моря атмосферное давление.
Po - Атмосферное давление - измеренное на уровне метеостанции атмосферное давление.
Tmin - Минимальная температура - минимум температуры воздуха на высоте 2 м над землей.
Tmax - Максимальная температура - максимум температуры воздуха на высоте 2 м над землей.
R - Количество осадков - Количество выпавших осадков за период времени, мм. При наведении курсора мыши на число - период времени, за который выпало указанное количество осадков.
R24 - Количество осадков - Количество выпавших осадков за 24 часа, мм.
S - Снежный покров - Высота снежного покрова, см. При наведении курсора мыши на число - состояние снежного покрова и степень покрытия местности в баллах.